Printer-friendly version

IAU Minor Planet Center

Minor Planet Center

176P/LINEAR

Orbital Elements

The following orbital elements are taken from Catalogue of Cometary Orbits 17th edition:
176P/LINEAR
Epoch 2005 Nov. 6.0 TT = JDT 2453680.5
T 2005 Oct. 18.4112 TT                                  MPC
q   2.581119             (2000.0)            P               Q
n   0.1724699      Peri.   36.1486      +0.9221809      -0.3867577
a   3.196395       Node   346.6042      +0.3538630      +0.8447457
e   0.192491       Incl.    0.2379      +0.1560878      +0.3698963
P   5.71
From 223 observations 1999-2008, mean residual 0".5.
Elements are also available for the current standard epoch:
176P/LINEAR
Epoch 2010 Jan. 4.0 TT = JDT 2455200.5
T 2011 July 2.6532 TT                                   MPC
q   2.575169             (2000.0)            P               Q
n   0.1727581      Peri.   35.9710      +0.9240355      -0.3823053
a   3.192840       Node   346.5055      +0.3497827      +0.8464450
e   0.193455       Incl.    0.2378      +0.1543060      +0.3706393
P   5.71
An explanation of the orbital elements is available.

These orbital elements are also available in forms suitable for loading into a number of popular planetarium-type software programs.


Ephemeris

The following ephemeris is at intervals of five days. A daily ephemeris covering the same time interval is also available.

Personalized ephemerides for this (and other) objects may be generated using the Minor Planet & Comet Ephemeris Service.

Recent magnitude estimates for this comet (as reported to the ICQ) may be available.

Date    TT    R. A. (2000) Decl.     Delta      r     Elong.  Phase   m1    m2

WARNING!

This comet gets close to the sun during the period covered in the ephemeris below. Observers are warned to be wary of observing comets near the sun. NEVER point any kind of optical instrument at the sun--instant blindness will be the probable result.

2009 10 26 16 21.89 -21 43.4 4.235 3.465 34.7 9.4 21.5 2009 10 31 16 28.49 -21 58.1 4.267 3.457 31.3 8.6 21.4 2009 11 05 16 35.24 -22 12.2 4.295 3.449 27.9 7.7 21.4 2009 11 10 16 42.12 -22 25.4 4.318 3.442 24.5 6.8 21.4 2009 11 15 16 49.13 -22 37.8 4.338 3.434 21.1 5.9 21.3 2009 11 20 16 56.25 -22 49.1 4.354 3.426 17.7 5.0 21.3 2009 11 25 17 03.48 -22 59.4 4.365 3.418 14.3 4.1 21.2 2009 11 30 17 10.79 -23 08.5 4.373 3.409 10.9 3.1 21.2 2009 12 05 17 18.18 -23 16.5 4.376 3.401 7.6 2.2 21.1 2009 12 10 17 25.64 -23 23.2 4.374 3.393 4.2 1.2 21.0 2009 12 15 17 33.15 -23 28.7 4.369 3.385 0.9 0.3 20.9 2009 12 20 17 40.70 -23 32.8 4.359 3.376 2.5 0.7 21.0 2009 12 25 17 48.29 -23 35.6 4.345 3.368 5.9 1.7 21.0 2009 12 30 17 55.89 -23 37.1 4.326 3.359 9.2 2.7 21.1 2010 01 04 18 03.49 -23 37.1 4.304 3.351 12.6 3.7 21.1 2010 01 09 18 11.09 -23 35.8 4.277 3.342 15.9 4.6 21.2 2010 01 14 18 18.67 -23 33.1 4.246 3.333 19.3 5.6 21.2 2010 01 19 18 26.21 -23 29.1 4.211 3.325 22.6 6.5 21.2 2010 01 24 18 33.70 -23 23.8 4.172 3.316 26.0 7.5 21.2 2010 01 29 18 41.14 -23 17.2 4.130 3.307 29.4 8.4 21.3 2010 02 03 18 48.50 -23 09.4 4.084 3.298 32.8 9.3 21.3 2010 02 08 18 55.77 -23 00.4 4.034 3.289 36.2 10.2 21.3 2010 02 13 19 02.94 -22 50.4 3.981 3.280 39.6 11.0 21.3 2010 02 18 19 10.00 -22 39.3 3.925 3.271 43.0 11.9 21.3 2010 02 23 19 16.93 -22 27.2 3.865 3.262 46.4 12.7 21.3 2010 02 28 19 23.72 -22 14.4 3.803 3.253 49.8 13.5 21.2 2010 03 05 19 30.35 -22 00.7 3.738 3.244 53.3 14.2 21.2 2010 03 10 19 36.80 -21 46.5 3.671 3.235 56.8 14.9 21.2 2010 03 15 19 43.07 -21 31.7 3.601 3.226 60.3 15.5 21.2 2010 03 20 19 49.14 -21 16.5 3.529 3.217 63.8 16.1 21.1 2010 03 25 19 54.98 -21 01.2 3.455 3.207 67.4 16.7 21.1 2010 03 30 20 00.59 -20 45.6 3.380 3.198 71.0 17.2 21.1 2010 04 04 20 05.94 -20 30.2 3.304 3.189 74.7 17.6 21.0 2010 04 09 20 11.02 -20 14.9 3.226 3.180 78.4 18.0 21.0 2010 04 14 20 15.81 -20 00.0 3.147 3.170 82.1 18.3 20.9 2010 04 19 20 20.28 -19 45.6 3.068 3.161 86.0 18.5 20.9 2010 04 24 20 24.40 -19 31.9 2.989 3.151 89.8 18.6 20.8 2010 04 29 20 28.17 -19 19.2 2.910 3.142 93.8 18.6 20.8 2010 05 04 20 31.55 -19 07.4 2.832 3.132 97.8 18.6 20.7 2010 05 09 20 34.53 -18 56.9 2.754 3.123 101.9 18.4 20.6 2010 05 14 20 37.06 -18 47.8 2.677 3.114 106.2 18.2 20.5 2010 05 19 20 39.14 -18 40.4 2.602 3.104 110.5 17.8 20.5 2010 05 24 20 40.73 -18 34.6 2.529 3.095 114.9 17.3 20.4 2010 05 29 20 41.81 -18 30.8 2.458 3.085 119.4 16.6 20.3 2010 06 03 20 42.36 -18 28.8 2.390 3.076 124.1 15.9 20.2 2010 06 08 20 42.37 -18 29.0 2.326 3.066 128.9 14.9 20.1 2010 06 13 20 41.82 -18 31.3 2.265 3.057 133.8 13.9 20.0 2010 06 18 20 40.71 -18 35.6 2.208 3.047 138.8 12.7 19.9 2010 06 23 20 39.06 -18 42.0 2.156 3.038 144.0 11.3 19.8 2010 06 28 20 36.87 -18 50.2 2.109 3.028 149.3 9.9 19.7 2010 07 03 20 34.19 -19 00.0 2.068 3.019 154.7 8.3 19.6 2010 07 08 20 31.07 -19 11.2 2.033 3.009 160.3 6.6 19.4 2010 07 13 20 27.55 -19 23.5 2.004 3.000 165.9 4.7 19.3 2010 07 18 20 23.73 -19 36.5 1.981 2.990 171.6 2.9 19.2 2010 07 23 20 19.72 -19 49.8 1.966 2.981 177.3 0.9 19.0 2010 07 28 20 15.60 -20 02.9 1.957 2.972 176.9 1.1 19.0 2010 08 02 20 11.49 -20 15.6 1.955 2.962 171.1 3.0 19.1 2010 08 07 20 07.51 -20 27.4 1.960 2.953 165.4 5.0 19.2 2010 08 12 20 03.75 -20 38.2 1.972 2.944 159.7 6.9 19.3 2010 08 17 20 00.34 -20 47.6 1.990 2.935 154.1 8.7 19.4 2010 08 22 19 57.35 -20 55.5 2.014 2.925 148.6 10.4 19.5 2010 08 27 19 54.87 -21 01.8 2.044 2.916 143.2 12.0 19.6 2010 09 01 19 52.94 -21 06.5 2.079 2.907 137.9 13.5 19.7 2010 09 06 19 51.60 -21 09.5 2.118 2.898 132.7 14.8 19.8 2010 09 11 19 50.88 -21 10.9 2.162 2.889 127.7 16.0 19.8 2010 09 16 19 50.80 -21 10.5 2.209 2.880 122.8 17.1 19.9 2010 09 21 19 51.36 -21 08.5 2.259 2.871 118.1 18.0 20.0 2010 09 26 19 52.54 -21 04.8 2.312 2.862 113.4 18.7 20.1 2010 10 01 19 54.31 -20 59.5 2.367 2.854 109.0 19.4 20.1 2010 10 06 19 56.66 -20 52.6 2.423 2.845 104.6 19.9 20.2 2010 10 11 19 59.57 -20 43.9 2.481 2.836 100.4 20.3 20.2 2010 10 16 20 03.00 -20 33.6 2.540 2.828 96.2 20.5 20.3 2010 10 21 20 06.91 -20 21.5 2.600 2.819 92.2 20.7 20.3 2010 10 26 20 11.28 -20 07.7 2.659 2.811 88.3 20.7 20.4 2010 10 31 20 16.06 -19 52.1 2.719 2.803 84.4 20.6 20.4 2010 11 05 20 21.24 -19 34.8 2.778 2.795 80.7 20.5 20.5 2010 11 10 20 26.77 -19 15.5 2.837 2.787 77.0 20.3 20.5 2010 11 15 20 32.63 -18 54.5 2.894 2.779 73.4 20.0 20.5 2010 11 20 20 38.79 -18 31.5 2.951 2.771 69.9 19.6 20.5 2010 11 25 20 45.22 -18 06.7 3.006 2.763 66.4 19.1 20.6 2010 11 30 20 51.89 -17 40.0 3.059 2.755 63.0 18.6 20.6

Valid HTML 4.01!